Keene, NH

3:10 PM EDT on September 18, 2019 (GMT -0400)
Dillant-Hopkins

Weather History for KEEN - August, 2019

Change the Weather History Date:

Sunday, August 25, 2019

  Actual Average Record
Temperature  
Mean Temperature 62 °F -  
Max Temperature 73 °F 78 °F 96 °F (1948)
Min Temperature 48 °F 52 °F 27 °F (1940)
Degree Days  
Heating Degree Days 4    
Growing Degree Days 12 (Base 50)    
Moisture  
Dew Point 51 °F    
Average Humidity 81    
Maximum Humidity 100    
Minimum Humidity 38    
Precipitation  
Precipitation 0.00 in - - ()
Sea Level Pressure  
Sea Level Pressure 30.34 in    
Wind  
Wind Speed 2 mph (ENE)    
Max Wind Speed 10 mph    
Max Gust Speed 16 mph    
Visibility 8 miles    
Events      
Averages and records for this station are not official NWS values.
T = Trace of Precipitation, MM = Missing Value Source: NWS Daily Summary

Daily Weather History Graph

Daily Weather History Graph

Search for Another Location

Airport or City:

Astronomy

Aug. 25, 2019 Rise Set
Actual Time 6:05 AM EDT 7:35 PM EDT
Civil Twilight 5:36 AM EDT 8:05 PM EDT
Nautical Twilight 5:00 AM EDT 8:41 PM EDT
Astronomical Twilight 4:21 AM EDT 9:19 PM EDT
Moon 12:34 AM EDT (8/25) 3:58 PM EDT (8/25)
Length of Visible Light 14h 29m
Length of Day
13h 30m
Waning Crescent, 29% of the Moon is Illuminated
Aug 25
Waning Crescent
Aug 30
New
Sep 5
First Quarter
Sep 14
Full
Sep 21
Last Quarter

Hourly Weather History & Observations

Time (EDT) Temp. Dew Point Humidity Pressure Visibility Wind Dir Wind Speed Gust Speed Precip Events Conditions
12:56 AM 55.0 °F 54.0 °F 96% 30.34 in 10.0 mi Calm Calm - N/A   Clear
1:56 AM 54.0 °F 54.0 °F 100% 30.33 in 10.0 mi Calm Calm - N/A   Partly Cloudy
2:28 AM 53.6 °F 53.6 °F 100% 30.32 in 1.8 mi Calm Calm - N/A   Clear
2:50 AM 53.6 °F 53.6 °F 100% 30.32 in 4.0 mi Calm Calm - N/A   Clear
2:56 AM 52.0 °F 52.0 °F 100% 30.33 in 4.0 mi Calm Calm - N/A   Clear
3:01 AM 51.8 °F 51.8 °F 100% 30.32 in 1.8 mi Calm Calm - N/A   Clear
3:04 AM 51.8 °F 51.8 °F 100% 30.32 in 0.8 mi Calm Calm - N/A   Partly Cloudy
3:14 AM 53.6 °F 51.8 °F 94% 30.32 in 1.5 mi Calm Calm - N/A   Mostly Cloudy
3:16 AM 53.6 °F 51.8 °F 94% 30.32 in 4.0 mi Calm Calm - N/A   Mostly Cloudy
3:56 AM 53.1 °F 53.1 °F 100% 30.34 in 10.0 mi Calm Calm - N/A   Mostly Cloudy
4:56 AM 53.1 °F 52.0 °F 96% 30.35 in 10.0 mi Calm Calm - N/A   Mostly Cloudy
5:09 AM 53.6 °F 53.6 °F 100% 30.33 in 10.0 mi Calm Calm - N/A   Mostly Cloudy
5:56 AM 53.1 °F 52.0 °F 96% 30.35 in 7.0 mi Calm Calm - N/A   Mostly Cloudy
6:03 AM 51.8 °F 51.8 °F 100% 30.33 in 7.0 mi Calm Calm - N/A   Mostly Cloudy
6:18 AM 51.8 °F 51.8 °F 100% 30.34 in 2.0 mi SSW 3.5 mph - N/A   Mostly Cloudy
6:27 AM 51.8 °F 51.8 °F 100% 30.34 in 10.0 mi Calm Calm - N/A   Mostly Cloudy
6:56 AM 52.0 °F 52.0 °F 100% 30.37 in 10.0 mi Calm Calm - N/A   Mostly Cloudy
7:34 AM 55.4 °F 55.4 °F 100% 30.36 in 10.0 mi Calm Calm - N/A   Overcast
7:56 AM 57.9 °F 55.0 °F 90% 30.38 in 10.0 mi North 3.5 mph - N/A   Overcast
8:24 AM 59.0 °F 55.4 °F 88% 30.37 in 10.0 mi Calm Calm - N/A   Mostly Cloudy
8:56 AM 63.0 °F 57.0 °F 81% 30.38 in 10.0 mi North 5.8 mph - N/A   Overcast
9:30 AM 64.4 °F 53.6 °F 68% 30.37 in 8.0 mi NE 9.2 mph - N/A   Overcast
9:56 AM 64.9 °F 54.0 °F 68% 30.38 in 10.0 mi Variable 4.6 mph - N/A   Mostly Cloudy
10:56 AM 66.0 °F 51.1 °F 59% 30.38 in 10.0 mi NE 10.4 mph - N/A   Scattered Clouds
11:56 AM 68.0 °F 50.0 °F 52% 30.37 in 10.0 mi ENE 9.2 mph - N/A   Scattered Clouds
12:56 PM 70.0 °F 48.0 °F 46% 30.35 in 9.0 mi ENE 9.2 mph - N/A   Clear
1:56 PM 71.1 °F 46.9 °F 42% 30.34 in 10.0 mi NNE 9.2 mph 16.1 mph N/A   Clear
2:56 PM 72.0 °F 46.9 °F 41% 30.33 in 10.0 mi Variable 4.6 mph - N/A   Clear
3:56 PM 72.0 °F 45.0 °F 38% 30.31 in 10.0 mi Variable 5.8 mph - N/A   Clear
4:56 PM 72.0 °F 46.0 °F 40% 30.30 in 10.0 mi ENE 5.8 mph - N/A   Clear
5:56 PM 71.1 °F 48.0 °F 44% 30.30 in 10.0 mi Variable 6.9 mph - N/A   Clear
6:56 PM 66.9 °F 44.1 °F 44% 30.31 in 10.0 mi Variable 4.6 mph - N/A   Clear
7:56 PM 61.0 °F 46.9 °F 60% 30.32 in 10.0 mi SE 3.5 mph - N/A   Clear
8:56 PM 55.9 °F 48.9 °F 77% 30.34 in 10.0 mi Calm Calm - N/A   Clear
9:56 PM 52.0 °F 48.0 °F 86% 30.35 in 10.0 mi Calm Calm - N/A   Clear
10:56 PM 51.1 °F 48.0 °F 89% 30.34 in 10.0 mi Calm Calm - N/A   Clear
11:56 PM 48.0 °F 46.9 °F 96% 30.33 in 10.0 mi SSE 3.5 mph - N/A   Clear